Weather History for KRIC - April, 2013

Change the Weather History Date:

Monday, April 22, 2013

  Actual Average Record
Temperature  
Mean Temperature 48 °F 60 °F  
Max Temperature 59 °F 72 °F 96 °F (1985)
Min Temperature 36 °F 48 °F 34 °F (1950)
Degree Days  
Heating Degree Days 17 6  
Month to date heating degree days 163 197  
Since 1 July heating degree days 3555 3649  
Cooling Degree Days 0 2  
Month to date cooling degree days 65 22  
Year to date cooling degree days 66 28  
Moisture  
Dew Point 38 °F    
Average Humidity 70    
Maximum Humidity 92    
Minimum Humidity 47    
Precipitation  
Precipitation 0.01 in 0.10 in 1.60 in (1984)
Month to date precipitation 1.84 2.41  
Year to date precipitation 15.34 12.25  
Snow  
Snow 0.00 in 0.00 in 0.00 in (2002)
Month to date snowfall T 0.1  
Since 1 July snowfall 8.6 10.3  
Snow Depth 0.00 in    
Sea Level Pressure  
Sea Level Pressure 30.46 in    
Wind  
Wind Speed 10 mph (NE)    
Max Wind Speed 18 mph    
Max Gust Speed 25 mph    
Visibility 10 miles    
Events      
T = Trace of Precipitation, MM = Missing Value Source: NWS Daily Summary

Daily Weather History Graph

Daily Weather History Graph

Search for Another Location

Airport or City:

Trip Planner

Search our weather history database for the weather conditions in past years. The results will help you decide how hot, cold, wet, or windy it might be!

Date:

Astronomy

Apr. 22, 2013 Rise Set
Actual Time 6:24 AM EDT 7:51 PM EDT
Civil Twilight 5:57 AM EDT 8:18 PM EDT
Nautical Twilight 5:24 AM EDT 8:51 PM EDT
Astronomical Twilight 4:49 AM EDT 9:26 PM EDT
Moon 4:41 PM EDT (4/22) 4:14 AM EDT (4/22)
Length of Visible Light 14h 21m
Length of Day
13h 26m
Waxing Gibbous, 87% of the Moon is Illuminated
Apr 22
Waxing Gibbous
Apr 25
Full
May 2
Last Quarter
May 9
New
May 18
First Quarter

Hourly Weather History & Observations

Time (EDT) Temp. Windchill Dew Point Humidity Pressure Visibility Wind Dir Wind Speed Gust Speed Precip Events Conditions
12:54 AM 39.9 °F - 34.0 °F 79% 30.56 in 10.0 mi Calm Calm - N/A   Clear
1:54 AM 39.0 °F - 34.0 °F 82% 30.56 in 10.0 mi Calm Calm - N/A   Clear
2:54 AM 37.0 °F 33.3 °F 34.0 °F 89% 30.54 in 10.0 mi NNE 4.6 mph - N/A   Clear
3:54 AM 36.0 °F 31.1 °F 33.1 °F 89% 30.52 in 10.0 mi NNE 5.8 mph - N/A   Clear
4:54 AM 36.0 °F 31.1 °F 33.1 °F 89% 30.51 in 10.0 mi NNE 5.8 mph - N/A   Clear
5:54 AM 36.0 °F 29.6 °F 33.1 °F 89% 30.50 in 10.0 mi NNE 8.1 mph - N/A   Partly Cloudy
6:54 AM 36.0 °F 31.1 °F 33.1 °F 89% 30.53 in 10.0 mi NNE 5.8 mph - N/A   Partly Cloudy
7:40 AM 39.2 °F 33.0 °F 33.8 °F 81% 30.50 in 10.0 mi NNE 9.2 mph - N/A   Mostly Cloudy
7:54 AM 39.9 °F 33.4 °F 35.1 °F 83% 30.53 in 10.0 mi North 10.4 mph - N/A   Mostly Cloudy
8:54 AM 45.0 °F 39.7 °F 37.0 °F 74% 30.51 in 10.0 mi NNE 10.4 mph - N/A   Mostly Cloudy
9:54 AM 48.0 °F - 39.0 °F 71% 30.51 in 10.0 mi NNE 11.5 mph - N/A   Mostly Cloudy
10:54 AM 52.0 °F - 39.0 °F 61% 30.51 in 10.0 mi NNE 11.5 mph - N/A   Overcast
11:26 AM 51.8 °F - 37.4 °F 58% 30.48 in 10.0 mi NE 9.2 mph 18.4 mph N/A   Overcast
11:54 AM 53.1 °F - 39.0 °F 59% 30.48 in 10.0 mi NNE 13.8 mph 18.4 mph N/A   Overcast
12:54 PM 57.0 °F - 39.0 °F 51% 30.47 in 10.0 mi NNE 15.0 mph 19.6 mph N/A   Mostly Cloudy
1:54 PM 57.9 °F - 37.9 °F 47% 30.45 in 10.0 mi NE 17.3 mph 23.0 mph N/A   Mostly Cloudy
2:54 PM 57.9 °F - 39.0 °F 49% 30.42 in 10.0 mi NE 12.7 mph 21.9 mph N/A   Overcast
3:54 PM 57.0 °F - 37.9 °F 49% 30.39 in 10.0 mi NE 13.8 mph 20.7 mph N/A   Overcast
4:54 PM 57.0 °F - 39.0 °F 51% 30.38 in 10.0 mi NE 12.7 mph 19.6 mph N/A   Overcast
5:54 PM 55.0 °F - 41.0 °F 59% 30.39 in 10.0 mi ENE 10.4 mph - N/A   Overcast
6:54 PM 53.1 °F - 42.1 °F 66% 30.38 in 10.0 mi NE 12.7 mph - N/A   Overcast
7:54 PM 52.0 °F - 41.0 °F 66% 30.38 in 10.0 mi ENE 9.2 mph - N/A   Overcast
8:54 PM 51.1 °F - 42.1 °F 71% 30.39 in 10.0 mi NE 9.2 mph - N/A   Overcast
9:54 PM 51.1 °F - 41.0 °F 68% 30.39 in 10.0 mi NE 10.4 mph - N/A   Overcast
10:54 PM 50.0 °F - 41.0 °F 71% 30.38 in 10.0 mi NE 9.2 mph - N/A   Overcast
11:37 PM 50.0 °F - 42.8 °F 76% 30.35 in 10.0 mi NNE 10.4 mph - N/A   Overcast
11:54 PM 50.0 °F - 42.1 °F 74% 30.37 in 10.0 mi NE 10.4 mph - N/A   Overcast